Showing default

RADIATION SAT (5E 1), 671

Orbit data source: Space-Track

RADIATION SAT (5E 1), 671 is a payload satellite owned by USN BuWeps (US) in LEO that was launched on Sat, 28 Sep 1963 UTC via a THOR ABLESTAR launch vehicle from the Air Force Western Test Range (AFWTR). Payload-class satellites include a variety of spacecraft equipped with specific instruments for various scientific and technological missions. These include communications satellites like Starlink; space stations such as the ISS; scientific satellites like the Hubble; Earth observation satellites from companies like Planet Labs, Umbra, and HawkEye 360; GPS; miniature CubeSats for education and research; and military/defense satellites.

Loading next visibility...
Identifier
671, 1963-038C
Orbit
LEO
Country
Flag of USUS
Related business
Manufacturer
APL
Mission
Spacecraft
Bus & Motor
TRANSIT 5, Unknown motor
Mass
59 kg wet, 59 kg dry
Launch date (UTC)
1963-09-28 (62 years ago)
Launch vehicle
THOR ABLESTAR
Launch site
Air Force Western Test Range (AFWTR)
Object type
Payload
Rocket body
Debris
Shape & HBR
Unknown
Radar Cross Section
Large (>1 m²)

Expand to show TLE details & history
Last TLE update: 13 hours ago

TLE from 13 hours ago
0 RADIATION SAT (5E 1)
1 00671U 63038C   25309.10369278  .00000090  00000-0  13655-3 0  9991
2 00671  89.9713 333.7238 0038213 272.7030  86.9744 13.45181744 44925
Epoch: 2025-11-05T02:29Z
TLE epoch observation values (Epoch: 2025-11-05T02:29:19.056Z)
Latitude
-0.00003°
Longitude
-108.18676°
Altitude
1,091.588 km
Speed
7.307 km/s
True Right ascension
22h 14m 53s
True Declination
0° 00' 00"
Sunlit
Object was in daylight at epoch
Visualization orbit readout
Latitude
Unknown
Longitude
Unknown
Altitude
Unknown
Speed
Unknown
Apparent Right ascension
Unknown
Apparent Declination
Unknown
Sunlit
N/A
Visualization observer readout
Local Sidereal Time
11:04:17
Azimuth
Unknown
Elevation
Unknown
Doppler factor
Unknown
Orbital elements
Apogee altitude
1,115.622 km
Perigee altitude
1,058.569 km
Semi-major axis
7,465.233 km
Eccentricity
0.00382
Inclination
89.9713°
RAAN
333.7238°
Arg. of periapsis
272.703°
True anomaly
87.41178°
Mean anomaly
86.9744°
Eccentric anomaly
87.19308°
Mean motion
3.36495 °/min
Orbital period
106.99 mins
BSTAR
0.00013655
Loading maneuver chart data...
Computing Atmospheric mass density...

Documentation

Showing up to 5 results
|